Tracking 29777 objects as of 6-Oct-2024
HD Live streaming from Space Station
objects crossing your sky now

STARLINK-1877

Track STARLINK-1877 now!
10-day predictions
STARLINK-1877 is classified as:


NORAD ID: 47162
Int'l Code: 2020-088AS
Perigee: 553.4 km
Apogee: 555.3 km
Inclination: 53.1 °
Period: 95.6 minutes
Semi major axis: 6925 km
RCS: Unknown
Launch date: November 25, 2020
Source: United States (US)
Launch site: AIR FORCE EASTERN TEST RANGE (AFETR)
Your satellite tracking list
Your tracking list is empty




NASA's NSSDC Master Catalog

Two Line Element Set (TLE):
1 47162U 20088AS  24280.53903060  .00006800  00000-0  47483-3 0  9993
2 47162  53.0535 112.1737 0001391  85.6264 274.4884 15.06409730213840
Source of the keplerian elements: AFSPC